This is the latest recevied weather packets stored in our database for station/object IV3CLI-10. If no packets are shown the sender has not sent any weather packets the latest 10 day(s).
| Time | Temp. | Humidity | Pressure | Rain* | Wind** | Luminosity | Snow |
|---|---|---|---|---|---|---|---|
| 1777717223 | 23.33° C | 76% | 1024.3 hPa | - | - | - | - |
| 1777716323 | 23.33° C | 84% | 1024.5 hPa | - | - | - | - |
| 1777715423 | 22.78° C | 75% | 1024.7 hPa | - | - | - | - |
| 1777714523 | 21.11° C | 74% | 1024.7 hPa | - | - | - | - |
| 1777713623 | 22.78° C | 78% | 1024.9 hPa | - | - | - | - |
| 1777712764 | 23.33° C | 82% | 1025 hPa | - | - | - | - |
| 1777711823 | 22.22° C | 82% | 1025.2 hPa | - | - | - | - |
| 1777710922 | 23.89° C | 70% | 1025.1 hPa | - | - | - | - |
| 1777710022 | 23.89° C | 68% | 1025.2 hPa | - | - | - | - |
| 1777709122 | 22.78° C | 67% | 1025.2 hPa | - | - | - | - |
| 1777708222 | 21.67° C | 77% | 1025.4 hPa | - | - | - | - |
| 1777707321 | 21.11° C | 81% | 1025.4 hPa | - | - | - | - |
| 1777706956 | 21.11° C | 86% | 1025.5 hPa | - | - | - | - |
| 1777706421 | 21.11° C | 86% | 1025.5 hPa | - | - | - | - |
| 1777705521 | 21.67° C | 100% | 1025.7 hPa | - | - | - | - |
| 1777704621 | 20° C | 100% | 1025.7 hPa | - | - | - | - |
| 1777703721 | 18.33° C | 100% | 1025.8 hPa | - | - | - | - |
| 1777702821 | 17.78° C | 100% | 1025.9 hPa | - | - | - | - |
| 1777701920 | 16.11° C | 100% | 1025.8 hPa | - | - | - | - |
| 1777701020 | 13.89° C | 100% | 1025.9 hPa | - | - | - | - |
| 1777700120 | 12.78° C | 100% | 1025.9 hPa | - | - | - | - |
| 1777699220 | 11.11° C | 100% | 1026 hPa | - | - | - | - |
| 1777698320 | 10.56° C | 100% | 1026 hPa | - | - | - | - |
| 1777689129 | 7.22° C | 100% | 1025.7 hPa | - | - | - | - |
| 1777687017 | 7.78° C | 100% | 1025.7 hPa | - | - | - | - |
* Rain since midnight (hover to see other rain measurements)
** Current wind speed in m/s (hover to see current wind gust speed)